Current weather by "City, St" or "zip code"  
 
Advertise Here

Current Conditions: Wheeling, Wheeling Ohio County Airport, WV

Light Snow Fog/Mist


30.0 F

Last Updated on Jan 18 2021, 3:53 am EST
Humidity: 88%
Wind Speed: W 10.4 mph
Barometer 29.72 in
Dewpoint: 27.0 F
Visibility: 2.00 mi
Precip: 00.06 in
Heat Index: NA
Wind Chill: 21 F
Current conditions at:

Wheeling, Wheeling Ohio County Airport, WV (KHLG)

Lat: 40.17028 Lon: 80.64444

Local Radar Image active severe weather and emergency alerts image image weather storm and storm spotter reports image weather observation monitoring service image
Local
Radar
Active
Alerts
Storm Reports Obs
Monitoring

Sign-up For Email & Text Message Weather Alert Notification Services


Advertise Here

Observation History for Wheeling, Wheeling Ohio County Airport, WV


Time Wind
(mph)
Vis
(mi)
Weather Precip (in) Temperature (F) Relative
Humidity
Wind
Chill
(F)
Heat
Index
(F)
Pressure
Air Dwpt altimeter
(in)
sea level
(mb)
Rmks
3:53 am EST W 10.4 2.00 Light Snow Fog/Mist 00.06 30.0 27.0 88% 21 NA 29.72 1007.7
2:53 am EST SW 9.2 5.00 Light Snow Trace 32.0 27.0 82% 24 NA 29.72 1007.7
1:53 am EST W 6.9 10.00 Overcast -- 32.0 27.0 82% 26 NA 29.71 1007.3
12:53 am EST SW 10.4 10.00 Overcast Trace 32.0 28.0 85% 24 NA 29.70 1007.1
11:53 pm EST SW 10.4 5.00 Light Snow Fog/Mist Trace 32.0 28.9 88% 24 NA 29.70 1007.1
10:53 pm EST SW 11.5 8.00 Overcast Trace 33.0 28.9 85% 24 NA 29.71 1007.1
9:53 pm EST SW 9.2 7.00 Overcast Trace 33.0 30.0 89% 25 NA 29.70 1007.2
8:53 pm EST SW 5.8 5.00 Light Snow Fog/Mist Trace 33.0 30.0 89% 28 NA 29.71 1007.3
7:53 pm EST SW 8.1 5.00 Light Snow Fog/Mist Trace 33.0 30.0 89% 26 NA 29.71 1007.4
6:53 pm EST SW 6.9 3.00 Light Snow Fog/Mist Trace 33.0 30.0 89% 27 NA 29.71 1007.5
5:53 pm EST SW 8.1 2.50 Light Snow Fog/Mist Trace 33.0 30.0 89% 26 NA 29.71 1007.4
4:53 pm EST SW 9.2 8.00 Overcast Trace 34.0 28.9 82% 27 NA 29.70 1007.1
3:53 pm EST SW 6.9 5.00 Light Snow Fog/Mist Trace 34.0 30.0 85% 28 NA 29.69 1006.8
2:53 pm EST SW 8.1 2.00 Light Snow Fog/Mist Trace 33.0 30.0 89% 26 NA 29.69 1006.7
1:53 pm EST SW 8.1 2.00 Light Snow Fog/Mist Trace 33.0 30.0 89% 26 NA 29.70 1006.9
12:53 pm EST SW 6.9 2.00 Light Snow Fog/Mist Trace 34.0 30.0 85% 28 NA 29.71 1007.4
11:53 am EST SW 9.2 3.00 Light Snow Trace 34.0 28.9 82% 27 NA 29.73 1008.2
10:53 am EST SW 6.9 9.00 Overcast Trace 34.0 30.0 85% 28 NA 29.75 1008.9
9:53 am EST W 8.1 4.00 Light Snow Fog/Mist Trace 33.0 30.0 89% 26 NA 29.75 1008.7
8:53 am EST W 9.2 5.00 Light Snow Fog/Mist Trace 33.0 28.9 85% 25 NA 29.73 1008.2
7:53 am EST SW 10.4 G 17.3 4.00 Light Snow Fog/Mist Trace 33.0 28.9 85% 25 NA 29.72 1007.6
6:53 am EST W 8.1 3.00 Light Snow Fog/Mist Trace 33.0 30.0 89% 26 NA 29.70 1007.1
5:53 am EST SW 8.1 3.00 Light Snow Fog/Mist Trace 32.0 28.9 88% 25 NA 29.68 1006.4
4:53 am EST SW 10.4 G 19.6 10.00 Overcast -- 32.0 27.0 82% 24 NA 29.67 1005.9

Regional Weather Observation


Washington - Washington County Airport, PA (KAFJ)

Light Snow Fog/Mist
31.0 F

Pittsburgh, Pittsburgh International Airport, PA (KPIT)

Light Snow
31.0 F

Beaver County Airport, PA (KBVI)

Overcast
30.0 F

New Philadelphia, Harry Clever Field, OH (KPHD)

Overcast
30.0 F

Unknown Station (KPJC)

Overcast
32.0 F

Akron Canton Regional Airport, OH (KCAK)

Light Snow
29.0 F